[[{"header":{"parameterUnit":"m.s-1","parameterCategory":1,"la1":30.2991,"la2":30.254,"lo1":-89.0895,"lo2":-89.0444,"dy":0.0017,"dx":0.0017,"nx":28,"ny":28,"refTime":"2023-09-01T03:00:00:Z","depth":0,"parameterNumber":2,"parameterNumberName":"U-component_of_WINDS"},"data":[0,0,0,0,0,0,0,0,0,0,0,0,0,0,0,0,0,0,0,0,0,0,0,0,0,0,0,0,0,0,0,0,0,0,0,0,0,0,0,0,0,0,0,0,0,0,0,0,0,0,0,0,0,0,0,0,0,0,-2.5645,-2.5647,0,-2.5794,-2.5795,-2.5797,-2.5835,-2.5834,-2.5833,-2.5832,-2.5985,-2.599,-2.5995,0,0,0,0,0,0,0,0,0,0,0,0,0,-2.5395,-2.5399,-2.5645,-2.5647,-2.5649,-2.5793,-2.5795,-2.5797,-2.5835,-2.5834,-2.5833,-2.5832,-2.5983,-2.5989,-2.5995,0,0,0,0,0,0,0,0,0,0,0,0,0,-2.5519,-2.5401,-2.5645,-2.5685,-2.569,-2.5793,-2.5795,-2.5798,-2.5835,-2.5834,-2.5832,-2.5831,-2.5981,-2.5989,-2.5996,-2.607,0,0,-2.6018,-2.6022,0,0,0,0,0,0,0,0,-2.5512,-2.5528,-2.5677,-2.5682,-2.5688,-2.5794,-2.5763,-2.5889,-2.5836,-2.578,-2.5832,-2.583,-2.5923,-2.5935,-2.5966,-2.6077,-2.6083,-2.6019,-2.6024,-2.6027,-2.6029,0,0,0,0,0,0,0,-2.5504,-2.5522,-2.5704,-2.5679,-2.5686,-2.5696,-2.5712,-2.5787,-2.5857,-2.5785,-2.5788,-2.5805,-2.5925,-2.5958,-2.597,-2.6086,-2.6019,-2.6026,-2.603,-2.6033,-2.6264,-2.6266,0,0,0,0,0,0,-2.5488,-2.5515,-2.5699,-2.5708,-2.5595,-2.5701,-2.5719,-2.5762,-2.5857,-2.587,-2.5806,-2.5806,-2.5947,-2.5961,-2.5975,-2.6067,-2.6027,-2.6034,-2.6038,-2.6263,-2.6265,-2.6266,0,0,0,0,0,0,-2.5482,-2.5504,-2.5693,-2.5612,-2.5637,-2.5707,-2.5754,-2.5765,-2.5798,-2.5873,-2.5885,-2.5827,-2.5946,-2.5965,-2.6046,-2.6073,-2.6037,-2.6044,-2.6261,-2.6263,-2.6265,-2.6251,0,0,0,0,0,0,-2.5475,-2.5502,-2.553,-2.5613,-2.5641,-2.5761,-2.5756,-2.5769,-2.5811,-2.5813,-2.5896,-2.5908,-2.5946,-2.6034,-2.6053,-2.6082,-2.605,-2.6258,-2.6262,-2.6265,-2.625,-2.6253,-2.6256,0,0,0,0,0,-2.5466,-2.5521,-2.5531,-2.5553,-2.5678,-2.5762,-2.5779,-2.5821,-2.5813,-2.5842,-2.589,-2.5905,-2.6067,-2.6042,-2.6064,-2.6096,-2.6257,-2.6261,-2.6264,-2.6248,-2.6252,-2.6256,0,0,0,0,0,0,-2.5439,-2.5532,-2.5545,-2.5628,-2.5687,-2.5768,-2.5806,-2.5825,-2.5887,-2.5886,-2.5937,-2.5955,-2.6033,-2.6073,-2.6043,-2.6172,-2.6162,-2.617,-2.6142,-2.6147,-2.615,-2.6138,-2.6056,0,0,0,0,0,-2.5443,-2.5503,-2.5581,-2.5647,-2.5676,-2.5736,-2.5774,-2.5802,-2.5865,-2.589,-2.5944,-2.6005,-2.6069,-2.6111,-2.6174,-2.6256,-2.6275,-2.6289,-2.6292,-2.6294,-2.63,-2.6346,-2.6353,-2.6279,-2.6279,-2.6279,0,0,-2.5452,-2.551,-2.5545,-2.5643,-2.5692,-2.5753,-2.5757,-2.5821,-2.5867,-2.59,-2.5979,-2.6021,-2.6093,-2.6174,-2.6213,-2.621,-2.6325,-2.6299,-2.63,-2.6305,-2.635,-2.6357,-2.6363,-2.6282,-2.6281,-2.6281,0,0,-2.5498,-2.5548,-2.5608,-2.5657,-2.5731,-2.5771,-2.5785,-2.5864,-2.5893,-2.5973,-2.5999,-2.6055,-2.6165,-2.6215,-2.6254,-2.632,-2.6336,-2.6339,-2.6355,-2.6399,-2.6404,-2.641,-2.6432,-2.6439,-2.6345,-2.6345,-2.6345,0,-2.5499,-2.5591,-2.5637,-2.57,-2.5742,-2.5775,-2.5836,-2.5881,-2.5972,-2.6001,-2.5996,-2.6135,-2.6186,-2.6279,-2.6295,-2.6326,-2.6344,-2.6329,-2.64,-2.6406,-2.6412,-2.6433,-2.6442,-2.6345,-2.6345,-2.6345,-2.6345,0,-2.5589,-2.5653,-2.5692,-2.5778,-2.5826,-2.5887,-2.5942,-2.5984,-2.6008,-2.6048,-2.613,-2.6192,-2.6268,-2.6293,-2.6317,-2.6389,-2.6385,-2.639,-2.6381,-2.6418,-2.6439,-2.6447,-2.6345,-2.6345,-2.6345,-2.6345,0,0,-2.5621,-2.5732,-2.5745,-2.5784,-2.5869,-2.5919,-2.5983,-2.6057,-2.6092,-2.6154,-2.6208,-2.6301,-2.6305,-2.635,-2.6381,-2.642,-2.6466,-2.642,-2.6422,-2.6425,-2.6548,-2.6543,-2.6552,-2.6478,-2.648,-2.6481,-2.6542,0,-2.5677,-2.579,-2.5832,-2.5925,-2.5985,-2.6017,-2.6072,-2.613,-2.617,-2.6226,-2.627,-2.6335,-2.6337,-2.6364,-2.6404,-2.6452,-2.6491,-2.6448,-2.6528,-2.653,-2.6507,-2.6563,-2.6558,-2.6612,-2.655,-2.6552,-2.6553,0,-2.5756,-2.5818,-2.5917,-2.5993,-2.6019,-2.6068,-2.6139,-2.6193,-2.6259,-2.6286,-2.6336,-2.6364,-2.6431,-2.6419,-2.6513,-2.6483,-2.6518,-2.6547,-2.655,-2.6558,-2.6542,-2.6571,-2.663,-2.6637,-2.6567,-2.6566,-2.6565,0,-2.5768,-2.5877,-2.5949,-2.5982,-2.6074,-2.6107,-2.6146,-2.6211,-2.6253,-2.6316,-2.6344,-2.6414,-2.6452,-2.6505,-2.6552,-2.6539,-2.6641,-2.6633,-2.6664,-2.6663,-2.6682,-2.668,-2.6747,-2.6708,-2.6708,-2.6708,-2.6707,0,-2.5825,-2.5883,-2.5956,-2.6,-2.6067,-2.6116,-2.6181,-2.6223,-2.628,-2.6333,-2.6367,-2.6416,-2.6475,-2.6532,-2.6569,-2.6641,-2.6658,-2.6681,-2.6689,-2.6677,-2.6674,-2.67,-2.6696,-2.671,-2.6709,-2.6709,-2.6709,0,-2.5849,-2.59,-2.5981,-2.606,-2.6082,-2.6127,-2.6196,-2.6241,-2.6282,-2.6349,-2.6368,-2.6433,-2.6502,-2.6554,-2.6643,-2.6668,-2.6744,-2.6754,-2.6721,-2.6725,-2.6752,-2.6749,-2.6837,-2.685,-2.6803,-2.6804,-2.6804,0,-2.588,-2.5926,-2.6011,-2.6048,-2.6088,-2.6149,-2.6191,-2.6241,-2.6285,-2.6363,-2.6398,-2.647,-2.6529,-2.6638,-2.6693,-2.6762,-2.6773,-2.6799,-2.6784,-2.6769,-2.6772,-2.6768,-2.6772,-2.6801,-2.6801,-2.6801,-2.6801,0,-2.5931,-2.5954,-2.6014,-2.6083,-2.6133,-2.619,-2.6247,-2.6276,-2.6337,-2.6384,-2.6454,-2.6501,-2.6592,-2.6662,-2.6736,-2.6778,-2.68,-2.6806,-2.6817,-2.6803,-2.6782,-2.6792,-2.6725,-2.6804,-2.6803,-2.6803,-2.6803,-2.6803,-2.596,-2.6001,-2.6067,-2.6133,-2.6181,-2.6234,-2.6279,-2.6326,-2.6386,-2.6463,-2.649,-2.6563,-2.6628,-2.673,-2.6772,-2.683,-2.683,-2.6845,-2.6849,-2.6852,-2.685,-2.6774,-2.6844,-2.6844,-2.6844,-2.6844,-2.6844,0,-2.6011,-2.6055,-2.6115,-2.6193,-2.6245,-2.6261,-2.6326,-2.6368,-2.6431,-2.649,-2.6548,-2.6629,-2.6697,-2.6758,-2.6829,-2.6863,-2.6875,-2.688,-2.6877,-2.6886,-2.6847,-2.683,-2.6869,-2.6869,-2.6869,-2.6869,-2.6869,-2.6869,-2.6044,-2.6115,-2.6145,-2.6241,-2.6285,-2.6356,-2.6391,-2.644,-2.6487,-2.6575,-2.6632,-2.6671,-2.6731,-2.6807,-2.687,-2.6886,-2.691,-2.6912,-2.6931,-2.6892,-2.6889,-2.6886,-2.687,-2.6918,-2.6918,-2.6966,-2.6966,-2.6966]},{"header":{"parameterUnit":"m.s-1","parameterCategory":1,"la1":30.2991,"la2":30.254,"lo1":-89.0895,"lo2":-89.0444,"dy":0.0017,"dx":0.0017,"nx":28,"ny":28,"refTime":"2023-09-01T03:00:00:Z","depth":0,"parameterNumber":3,"parameterNumberName":"V-component_of_WINDS"},"data":[0,0,0,0,0,0,0,0,0,0,0,0,0,0,0,0,0,0,0,0,0,0,0,0,0,0,0,0,0,0,0,0,0,0,0,0,0,0,0,0,0,0,0,0,0,0,0,0,0,0,0,0,0,0,0,0,0,0,3.2855,3.2856,0,3.2927,3.2928,3.2929,3.289,3.2888,3.2886,3.2884,3.2954,3.2957,3.2961,0,0,0,0,0,0,0,0,0,0,0,0,0,3.2678,3.2682,3.2855,3.2856,3.2857,3.2927,3.2928,3.2929,3.289,3.2887,3.2885,3.2883,3.2953,3.2957,3.2961,0,0,0,0,0,0,0,0,0,0,0,0,0,3.2753,3.2683,3.2855,3.2846,3.2845,3.2927,3.2928,3.293,3.289,3.2887,3.2884,3.2882,3.2951,3.2957,3.2962,3.3055,0,0,3.2979,3.2981,0,0,0,0,0,0,0,0,3.2749,3.276,3.2846,3.2846,3.2846,3.2897,3.2892,3.2972,3.2891,3.2873,3.2884,3.288,3.2937,3.2943,3.2963,3.3059,3.3062,3.298,3.2983,3.2985,3.2987,0,0,0,0,0,0,0,3.2744,3.2756,3.2883,3.2847,3.2848,3.2837,3.2844,3.2907,3.2921,3.2875,3.2872,3.2881,3.2936,3.2958,3.2965,3.3063,3.2979,3.2984,3.2988,3.299,3.3238,3.3241,0,0,0,0,0,0,3.274,3.2752,3.2881,3.2885,3.279,3.2842,3.2851,3.2883,3.292,3.2923,3.2884,3.2879,3.295,3.2958,3.2967,3.3078,3.2985,3.299,3.2994,3.3235,3.3239,3.3242,0,0,0,0,0,0,3.2736,3.2752,3.2878,3.2818,3.2834,3.2849,3.2886,3.2886,3.2908,3.2927,3.2929,3.2904,3.2948,3.2959,3.3034,3.308,3.2993,3.2998,3.3231,3.3236,3.3241,3.3302,0,0,0,0,0,0,3.2731,3.2751,3.2787,3.282,3.2837,3.2945,3.2888,3.289,3.2918,3.2913,3.2946,3.2949,3.2947,3.3026,3.304,3.3086,3.3002,3.3227,3.3233,3.3239,3.3295,3.3308,3.3319,0,0,0,0,0,3.2725,3.28,3.2789,3.2805,3.2883,3.2948,3.2958,3.2955,3.2922,3.2958,3.297,3.2947,3.3074,3.3034,3.3049,3.3098,3.3224,3.3231,3.3239,3.329,3.3305,3.3318,0,0,0,0,0,0,3.2771,3.2804,3.2792,3.288,3.2912,3.2941,3.2986,3.2971,3.3011,3.3005,3.2999,3.3007,3.3084,3.3099,3.3054,3.319,3.3143,3.3154,3.3177,3.3192,3.3204,3.3197,3.3007,0,0,0,0,0,3.2792,3.2843,3.2869,3.2944,3.2961,3.2971,3.2999,3.2995,3.3026,3.3039,3.3056,3.3087,3.3133,3.3164,3.3208,3.3298,3.3304,3.3339,3.3351,3.336,3.3369,3.3417,3.3433,3.3266,3.3266,3.3266,0,0,3.2834,3.2859,3.2891,3.2954,3.2978,3.3029,3.2982,3.3039,3.3077,3.3047,3.3119,3.3133,3.3167,3.325,3.3287,3.3264,3.3417,3.337,3.3377,3.338,3.3426,3.3442,3.3456,3.3271,3.3271,3.327,0,0,3.2938,3.2962,3.3027,3.3053,3.309,3.3097,3.3113,3.3145,3.3154,3.3226,3.3205,3.325,3.333,3.3355,3.3378,3.3493,3.3473,3.3507,3.3567,3.3614,3.3627,3.3639,3.3678,3.3693,3.3516,3.3516,3.3516,0,3.2985,3.3064,3.3062,3.3121,3.3149,3.3127,3.3192,3.3216,3.3265,3.3285,3.3259,3.336,3.3381,3.3469,3.3497,3.3517,3.3534,3.3502,3.3626,3.3637,3.3648,3.3686,3.3701,3.352,3.352,3.3519,3.3519,0,3.312,3.3175,3.3223,3.3272,3.3306,3.3368,3.3375,3.3409,3.3402,3.3411,3.3485,3.351,3.3559,3.358,3.3573,3.3667,3.3652,3.3626,3.3579,3.3668,3.3703,3.3718,3.3526,3.3524,3.3523,3.3522,0,0,3.3252,3.3302,3.3319,3.3341,3.3382,3.3424,3.3484,3.3533,3.3562,3.3597,3.3647,3.3717,3.3694,3.372,3.3716,3.3758,3.3846,3.3727,3.3728,3.3747,3.3951,3.3968,3.3985,3.3835,3.3837,3.384,3.3947,0,3.3357,3.3464,3.3466,3.3564,3.3614,3.3595,3.3647,3.3677,3.3688,3.3731,3.3743,3.3791,3.3758,3.3774,3.3814,3.3827,3.3887,3.382,3.3879,3.3881,3.3869,3.4004,3.4023,3.4123,3.3961,3.3964,3.3965,0,3.3493,3.3535,3.3639,3.3672,3.3693,3.3741,3.3786,3.3828,3.3862,3.3867,3.3897,3.3888,3.3948,3.3901,3.3984,3.3938,3.3963,3.3973,3.3977,3.3981,3.3927,3.401,3.4155,3.417,3.3987,3.3986,3.3984,0,3.3578,3.3659,3.3732,3.3752,3.3793,3.3827,3.3846,3.3877,3.3906,3.3946,3.3964,3.401,3.4035,3.407,3.4072,3.4038,3.4156,3.4109,3.416,3.416,3.4184,3.4182,3.4334,3.4203,3.4203,3.4203,3.4202,0,3.3694,3.3758,3.3771,3.3815,3.3886,3.3887,3.3957,3.3972,3.4,3.4046,3.4032,3.4076,3.4078,3.4122,3.4124,3.4192,3.4204,3.4208,3.4208,3.4209,3.4208,3.4223,3.4216,3.4207,3.4206,3.4205,3.4204,0,3.3799,3.3811,3.3888,3.3922,3.3932,3.3983,3.4011,3.4053,3.4063,3.4122,3.4136,3.4151,3.4203,3.421,3.4269,3.4271,3.4352,3.4345,3.4341,3.434,3.439,3.4385,3.4556,3.4578,3.4434,3.4436,3.4437,0,3.3872,3.3921,3.396,3.3991,3.4012,3.4062,3.4092,3.4095,3.4128,3.417,3.4207,3.4258,3.4298,3.4381,3.4397,3.4443,3.4436,3.4493,3.4442,3.4442,3.4435,3.4431,3.4436,3.4501,3.4503,3.4504,3.4505,0,3.3999,3.4002,3.4048,3.4096,3.4133,3.417,3.4205,3.4231,3.4239,3.4276,3.4329,3.4361,3.4423,3.4473,3.4519,3.4536,3.4522,3.4522,3.4536,3.4536,3.4531,3.4533,3.4366,3.4517,3.4516,3.4515,3.4514,3.4514,3.4089,3.4132,3.4166,3.4217,3.4245,3.4278,3.4319,3.4336,3.4381,3.4432,3.4432,3.449,3.4523,3.4583,3.4604,3.4649,3.463,3.4651,3.4656,3.466,3.4665,3.4526,3.4657,3.4657,3.4657,3.4657,3.4656,0,3.4214,3.4236,3.4283,3.4334,3.4374,3.436,3.4398,3.4432,3.4484,3.4516,3.4557,3.4619,3.4667,3.4688,3.4736,3.4768,3.4762,3.478,3.4777,3.4781,3.468,3.4662,3.4784,3.4784,3.4784,3.4784,3.4784,3.4784,3.4284,3.4355,3.4363,3.4448,3.4469,3.4527,3.455,3.4581,3.4607,3.4676,3.4717,3.4731,3.4759,3.4809,3.4852,3.4857,3.4875,3.4895,3.4897,3.4801,3.4788,3.4776,3.4759,3.4899,3.4899,3.4994,3.4995,3.4996]}]]